Location: Dziadowski
(50.3833°N, 20.0333°E)
Time: 06:47:52
(UTC+00:00)

Cosmos 1023 Rocket - Pass Details

Date: 18 January 2026
Orbit: 731 x 768 km, 74.1° (Epoch: 17 February)

Event Time Altitude Azimuth Distance (km) Brightness Sun altitude
Rises 04:36:55 0° 212° (SSW) 3,150 7.5 -17.8°
Reaches altitude 10° 04:39:16 10° 215° (SW) 2,235 6.7 -17.4°
Maximum altitude 04:44:17 64° 297° (WNW) 822 4.4 -16.6°
Drops below altitude 10° 04:49:23 10° 19° (NNE) 2,271 7.0 -15.8°
Sets 04:51:48 0° 23° (NNE) 3,205 7.8 -15.4°
